North Las Vegas, NV

1:19 AM PST on December 15, 2017 (GMT -0800)
North Las Vegas

Weather History for KVGT - May, 2013

Change the Weather History Date:

Tuesday, May 7, 2013

  Actual Average Record
Temperature  
Mean Temperature 63 °F 73 °F  
Max Temperature 72 °F 85 °F 98 °F (2009)
Min Temperature 57 °F 62 °F 39 °F (1951)
Degree Days  
Heating Degree Days 2 0  
Month to date heating degree days 0  
Since 1 July heating degree days 2038  
Cooling Degree Days 0 9  
Month to date cooling degree days 54  
Year to date cooling degree days 181  
Growing Degree Days 13 (Base 50)    
Moisture  
Dew Point 38 °F    
Average Humidity 40    
Maximum Humidity 51    
Minimum Humidity 29    
Precipitation  
Precipitation 0.00 in 0.00 in 0.21 in (2016)
Month to date precipitation 0.04  
Year to date precipitation 2.50  
Sea Level Pressure  
Sea Level Pressure 29.90 in    
Wind  
Wind Speed 10 mph (WNW)    
Max Wind Speed 29 mph    
Max Gust Speed 39 mph    
Visibility 10 miles    
Events      
T = Trace of Precipitation, MM = Missing Value Source: NWS Daily Summary

Daily Weather History Graph

Daily Weather History Graph

Search for Another Location

Airport or City:

Trip Planner

Search our weather history database for the weather conditions in past years. The results will help you decide how hot, cold, wet, or windy it might be!

Date:

Astronomy

May. 07, 2013 Rise Set
Actual Time 5:41 AM PDT 7:33 PM PDT
Civil Twilight 5:13 AM PDT 8:01 PM PDT
Nautical Twilight 4:39 AM PDT 8:35 PM PDT
Astronomical Twilight 4:03 AM PDT 9:12 PM PDT
Moon 4:14 AM PDT (5/7) 5:40 PM PDT (5/7)
Length of Visible Light 14h 48m
Length of Day
13h 52m
Waning Crescent, 5% of the Moon is Illuminated
May 7
Waning Crescent
May 9
New
May 17
First Quarter
May 24
Full
May 31
Last Quarter

Hourly Weather History & Observations

Time (PDT) Temp. Dew Point Humidity Pressure Visibility Wind Dir Wind Speed Gust Speed Precip Events Conditions
12:53 AM 64.0 °F 37.9 °F 38% 29.87 in 10.0 mi SSW 5.8 mph - N/A   Clear
1:53 AM 62.1 °F 37.0 °F 39% 29.86 in 10.0 mi South 6.9 mph - N/A   Clear
2:53 AM 61.0 °F 37.9 °F 42% 29.86 in 10.0 mi SSW 4.6 mph - N/A   Clear
3:53 AM 60.1 °F 37.9 °F 44% 29.86 in 10.0 mi SE 4.6 mph - N/A   Clear
4:53 AM 60.1 °F 37.0 °F 42% 29.87 in 10.0 mi SSW 6.9 mph - N/A   Mostly Cloudy
5:53 AM 57.9 °F 37.9 °F 47% 29.88 in 10.0 mi South 8.1 mph - N/A   Partly Cloudy
6:53 AM 59.0 °F 37.9 °F 46% 29.90 in 10.0 mi SSW 6.9 mph - N/A   Clear
7:53 AM 60.1 °F 39.0 °F 46% 29.91 in 10.0 mi SE 10.4 mph - N/A   Mostly Cloudy
8:53 AM 63.0 °F 39.0 °F 41% 29.91 in 10.0 mi SE 9.2 mph - N/A   Partly Cloudy
9:53 AM 64.9 °F 37.9 °F 37% 29.91 in 10.0 mi ESE 9.2 mph 17.3 mph N/A   Scattered Clouds
10:53 AM 69.1 °F 36.0 °F 30% 29.90 in 10.0 mi South 10.4 mph - N/A   Partly Cloudy
11:53 AM 69.1 °F 35.1 °F 29% 29.89 in 10.0 mi SW 9.2 mph - N/A   Mostly Cloudy
12:53 PM 62.1 °F 42.1 °F 48% 29.91 in 10.0 mi NNW 28.8 mph 39.1 mph N/A   Mostly Cloudy
1:53 PM 64.9 °F 41.0 °F 42% 29.90 in 10.0 mi NNW 25.3 mph 35.7 mph N/A   Scattered Clouds
2:53 PM 62.1 °F 41.0 °F 46% 29.91 in 10.0 mi NNW 19.6 mph 28.8 mph N/A   Partly Cloudy
3:53 PM 68.0 °F 37.0 °F 32% 29.88 in 10.0 mi NNW 13.8 mph - N/A   Partly Cloudy
4:53 PM 69.1 °F 35.1 °F 29% 29.88 in 10.0 mi North 17.3 mph 20.7 mph N/A   Clear
5:46 PM 66.2 °F 33.8 °F 30% 29.88 in 10.0 mi West 12.7 mph - N/A   Partly Cloudy
5:53 PM 66.0 °F 34.0 °F 30% 29.90 in 10.0 mi NW 12.7 mph - N/A   Clear
6:53 PM 66.0 °F 36.0 °F 33% 29.88 in 10.0 mi North 13.8 mph - N/A   Clear
7:53 PM 64.0 °F 37.0 °F 37% 29.91 in 10.0 mi NW 12.7 mph - N/A   Clear
8:53 PM 63.0 °F 37.9 °F 40% 29.92 in 10.0 mi NNW 10.4 mph - N/A   Clear
9:53 PM 63.0 °F 39.0 °F 41% 29.94 in 10.0 mi NNW 8.1 mph - N/A   Clear
10:53 PM 59.0 °F 41.0 °F 51% 29.94 in 10.0 mi North 11.5 mph - N/A   Partly Cloudy
11:53 PM 57.9 °F 39.9 °F 51% 29.96 in 10.0 mi North 9.2 mph - N/A   Scattered Clouds